VKG7AJ ESSA-LGSK

Flight info

Callsign VKG7AJ
Flight time 3h 4m
Altitude 33000
Route PETEV DCT ARMOD DCT PENOR N133 GOSAK DCT KOJOT DCT VERIG DCT GUPRO DCT OKANA DCT MAKED UL617 IBIDI
Aircraft A321/M-SDE3FGHIRWY/LB1

Departure

Time 2026-05-08 14:16
Airport Stockholm-Arlanda Airport (ESSA)

Arrival

Time 2026-05-08 17:20
Airport Skiathos Island National Airport (LGSK)
Time Latitude Longitude Altitude Speed Heading
2026-05-08 13:57 59.64778 17.92397 112 ft 0 kts 43°
2026-05-08 13:59 59.64778 17.92396 111 ft 0 kts 43°
2026-05-08 14:08 59.64772 17.92384 111 ft 4 kts 39°
2026-05-08 14:08 59.64749 17.92362 110 ft 4 kts 11°
2026-05-08 14:08 59.64727 17.92356 111 ft 4 kts 350°
2026-05-08 14:08 59.64710 17.92378 110 ft 3 kts 287°
2026-05-08 14:09 59.64706 17.92408 111 ft 1 kts 286°
2026-05-08 14:11 59.64712 17.92366 108 ft 8 kts 285°
2026-05-08 14:11 59.64725 17.92270 111 ft 7 kts 285°
2026-05-08 14:12 59.64745 17.92141 109 ft 14 kts 288°
2026-05-08 14:12 59.64849 17.92089 106 ft 20 kts
2026-05-08 14:12 59.64977 17.92136 106 ft 18 kts 12°
2026-05-08 14:12 59.65092 17.92181 107 ft 16 kts 10°
2026-05-08 14:13 59.65194 17.92214 107 ft 14 kts
2026-05-08 14:13 59.65284 17.92247 106 ft 13 kts 11°
2026-05-08 14:13 59.65371 17.92280 104 ft 12 kts 10°
2026-05-08 14:13 59.65463 17.92312 104 ft 15 kts 11°
2026-05-08 14:14 59.65575 17.92353 104 ft 18 kts 11°
2026-05-08 14:14 59.65705 17.92401 105 ft 20 kts
2026-05-08 14:14 59.65833 17.92446 106 ft 17 kts 11°
2026-05-08 14:14 59.65910 17.92366 109 ft 11 kts 285°
2026-05-08 14:15 59.65927 17.92191 114 ft 14 kts 278°
2026-05-08 14:15 59.65863 17.92095 114 ft 15 kts 192°
2026-05-08 14:15 59.65584 17.91995 107 ft 76 kts 190°
2026-05-08 14:15 59.64849 17.91730 107 ft 135 kts 190°
2026-05-08 14:16 59.63787 17.91340 331 ft 161 kts 188°
2026-05-08 14:16 59.62731 17.90959 1199 ft 152 kts 189°
2026-05-08 14:16 59.61703 17.90465 1828 ft 161 kts 204°
2026-05-08 14:16 59.60916 17.88743 2072 ft 183 kts 239°
2026-05-08 14:17 59.60258 17.86437 2228 ft 202 kts 235°
2026-05-08 14:17 59.59485 17.83993 2413 ft 217 kts 234°
2026-05-08 14:17 59.58673 17.81434 2880 ft 222 kts 238°
2026-05-08 14:17 59.57910 17.78693 3232 ft 235 kts 239°
2026-05-08 14:18 59.57137 17.75753 3621 ft 250 kts 240°
2026-05-08 14:18 59.56173 17.72883 4198 ft 253 kts 224°
2026-05-08 14:18 59.54979 17.70388 4984 ft 255 kts 224°
2026-05-08 14:18 59.53732 17.67824 5544 ft 263 kts 224°
2026-05-08 14:19 59.52453 17.65207 6256 ft 267 kts 225°
2026-05-08 14:19 59.51155 17.62555 6940 ft 270 kts 225°
2026-05-08 14:19 59.49846 17.59884 7624 ft 272 kts 225°
2026-05-08 14:19 59.48525 17.57191 8289 ft 275 kts 226°
2026-05-08 14:20 59.47192 17.54473 8974 ft 277 kts 226°
2026-05-08 14:20 59.45844 17.51736 9650 ft 280 kts 226°
2026-05-08 14:20 59.44483 17.48974 10274 ft 283 kts 226°
2026-05-08 14:20 59.43116 17.46190 10631 ft 296 kts 226°
2026-05-08 14:21 59.41636 17.43188 10764 ft 316 kts 226°
2026-05-08 14:21 59.40061 17.40003 10896 ft 335 kts 226°
2026-05-08 14:21 59.38397 17.36637 11011 ft 353 kts 226°
2026-05-08 14:21 59.36651 17.33114 11238 ft 366 kts 226°
2026-05-08 14:22 59.34862 17.29514 11718 ft 371 kts 226°
2026-05-08 14:22 59.33050 17.25872 12276 ft 374 kts 226°
2026-05-08 14:22 59.31228 17.22207 12843 ft 377 kts 226°
2026-05-08 14:22 59.29410 17.18563 13356 ft 381 kts 225°
2026-05-08 14:23 59.27547 17.14842 13885 ft 385 kts 225°
2026-05-08 14:23 59.25666 17.11095 14394 ft 387 kts 225°
2026-05-08 14:23 59.23680 17.07533 14867 ft 389 kts 217°
2026-05-08 14:23 59.21366 17.04776 15353 ft 391 kts 205°
2026-05-08 14:24 59.18793 17.03029 15819 ft 393 kts 193°
2026-05-08 14:24 59.16070 17.02369 16255 ft 397 kts 181°
2026-05-08 14:24 59.13313 17.02744 16732 ft 398 kts 174°
2026-05-08 14:24 59.10590 17.03321 17214 ft 400 kts 174°
2026-05-08 14:25 59.07812 17.03888 17662 ft 402 kts 175°
2026-05-08 14:25 59.05031 17.04442 18181 ft 403 kts 174°
2026-05-08 14:25 59.02231 17.05003 18637 ft 405 kts 174°
2026-05-08 14:25 58.99428 17.05572 19065 ft 406 kts 174°
2026-05-08 14:26 58.96605 17.06146 19417 ft 409 kts 174°
2026-05-08 14:26 58.93773 17.06722 19820 ft 411 kts 174°
2026-05-08 14:26 58.90920 17.07297 20168 ft 414 kts 174°
2026-05-08 14:26 58.88038 17.07698 20489 ft 417 kts 178°
2026-05-08 14:27 58.85177 17.07878 20933 ft 417 kts 178°
2026-05-08 14:27 58.82269 17.07974 21301 ft 419 kts 179°
2026-05-08 14:27 58.79345 17.08022 21741 ft 420 kts 179°
2026-05-08 14:27 58.76422 17.08056 22119 ft 422 kts 179°
2026-05-08 14:28 58.73477 17.08099 22406 ft 426 kts 179°
2026-05-08 14:28 58.70506 17.08160 22764 ft 428 kts 179°
2026-05-08 14:28 58.67516 17.08233 23072 ft 431 kts 179°
2026-05-08 14:28 58.64510 17.08317 23400 ft 434 kts 178°
2026-05-08 14:29 58.61487 17.08410 23763 ft 435 kts 178°
2026-05-08 14:29 58.58495 17.08501 24065 ft 437 kts 178°
2026-05-08 14:29 58.55447 17.08594 24364 ft 438 kts 178°
2026-05-08 14:29 58.52391 17.08685 24617 ft 441 kts 178°
2026-05-08 14:30 58.49329 17.08304 24877 ft 444 kts 191°
2026-05-08 14:30 58.46357 17.06648 25148 ft 446 kts 197°
2026-05-08 14:30 58.43413 17.04772 25433 ft 447 kts 197°
2026-05-08 14:30 58.40458 17.02872 25712 ft 449 kts 197°
2026-05-08 14:31 58.37498 17.00968 25988 ft 450 kts 197°
2026-05-08 14:31 58.34504 16.99216 26257 ft 450 kts 190°
2026-05-08 14:31 58.31391 16.98716 26527 ft 449 kts 178°
2026-05-08 14:32 58.25209 16.99089 27294 ft 446 kts 177°
2026-05-08 14:32 58.22109 16.99317 27684 ft 445 kts 176°
2026-05-08 14:32 58.19023 16.99559 28072 ft 444 kts 176°
2026-05-08 14:32 58.15946 16.99797 28529 ft 440 kts 177°
2026-05-08 14:33 58.12900 17.00027 29016 ft 436 kts 177°
2026-05-08 14:33 58.09877 17.00241 29449 ft 434 kts 177°
2026-05-08 14:33 58.06864 17.00448 29848 ft 432 kts 177°
2026-05-08 14:33 58.03904 17.00646 30225 ft 431 kts 178°
2026-05-08 14:34 58.00914 17.00840 30570 ft 429 kts 178°
2026-05-08 14:34 57.97932 17.01034 30856 ft 429 kts 177°
2026-05-08 14:34 57.94949 17.01235 31109 ft 429 kts 177°
2026-05-08 14:34 57.91963 17.01442 31359 ft 429 kts 177°
2026-05-08 14:35 57.88979 17.01651 31609 ft 430 kts 177°
2026-05-08 14:35 57.85998 17.01859 31921 ft 428 kts 177°
2026-05-08 14:35 57.83023 17.02063 32207 ft 427 kts 177°
2026-05-08 14:35 57.80050 17.02263 32448 ft 428 kts 177°
2026-05-08 14:36 57.77072 17.02463 32676 ft 428 kts 177°
2026-05-08 14:36 57.74134 17.02663 32902 ft 429 kts 177°
2026-05-08 14:36 57.71150 17.02865 33125 ft 429 kts 177°
2026-05-08 14:36 57.68158 17.03073 33307 ft 431 kts 177°
2026-05-08 14:37 57.62157 17.03481 33345 ft 432 kts 177°
2026-05-08 14:37 57.56143 17.03880 33344 ft 432 kts 177°
2026-05-08 14:38 57.50135 17.04288 33329 ft 432 kts 177°
2026-05-08 14:38 57.44207 17.04683 33339 ft 427 kts 178°
2026-05-08 14:39 57.38271 17.05073 33335 ft 427 kts 177°
2026-05-08 14:39 57.32335 17.05469 33338 ft 427 kts 178°
2026-05-08 14:40 57.26398 17.05865 33339 ft 427 kts 177°
2026-05-08 14:40 57.20459 17.06245 33333 ft 427 kts 177°
2026-05-08 14:41 57.14559 17.06634 33324 ft 427 kts 177°
2026-05-08 14:41 57.08619 17.07028 33321 ft 427 kts 177°
2026-05-08 14:42 57.02677 17.07418 33323 ft 427 kts 177°
2026-05-08 14:42 56.96727 17.07809 33315 ft 428 kts 177°
2026-05-08 14:43 56.90814 17.08177 33309 ft 428 kts 177°
2026-05-08 14:43 56.84855 17.08564 33310 ft 429 kts 177°
2026-05-08 14:44 56.78895 17.08958 33309 ft 429 kts 177°
2026-05-08 14:44 56.72930 17.09344 33309 ft 429 kts 177°
2026-05-08 14:45 56.66964 17.09729 33303 ft 429 kts 177°
2026-05-08 14:45 56.60993 17.10105 33297 ft 429 kts 177°
2026-05-08 14:46 56.55061 17.10475 33298 ft 430 kts 177°
2026-05-08 14:46 56.49085 17.10851 33290 ft 430 kts 177°
2026-05-08 14:47 56.43106 17.11237 33294 ft 430 kts 177°
2026-05-08 14:47 56.37118 17.11620 33287 ft 431 kts 177°
2026-05-08 14:48 56.31168 17.11996 33282 ft 431 kts 177°
2026-05-08 14:48 56.25176 17.12364 33283 ft 431 kts 177°
2026-05-08 14:49 56.19180 17.12732 33284 ft 431 kts 177°
2026-05-08 14:49 56.13180 17.13112 33272 ft 432 kts 177°
2026-05-08 14:50 56.07214 17.13489 33265 ft 432 kts 177°
2026-05-08 14:50 56.01198 17.13857 33264 ft 433 kts 177°
2026-05-08 14:51 55.95181 17.14221 33269 ft 433 kts 177°
2026-05-08 14:51 55.89155 17.14588 33261 ft 434 kts 178°
2026-05-08 14:52 55.80135 17.15143 33261 ft 434 kts 177°
2026-05-08 14:53 55.74098 17.15520 33265 ft 434 kts 177°
2026-05-08 14:53 55.68073 17.15893 33266 ft 433 kts 177°
2026-05-08 14:54 55.62162 17.17687 33263 ft 433 kts 161°
2026-05-08 14:54 55.56638 17.21965 33241 ft 435 kts 156°
2026-05-08 14:55 55.51084 17.26053 33252 ft 435 kts 159°
2026-05-08 14:55 55.45430 17.29863 33253 ft 435 kts 160°
2026-05-08 14:56 55.39781 17.33671 33248 ft 435 kts 159°
2026-05-08 14:56 55.34144 17.37561 33226 ft 436 kts 159°
2026-05-08 14:57 55.28537 17.41449 33226 ft 437 kts 159°
2026-05-08 14:57 55.22879 17.45353 33228 ft 437 kts 159°
2026-05-08 14:58 55.17215 17.49230 33231 ft 437 kts 159°
2026-05-08 14:58 55.11553 17.53090 33238 ft 437 kts 159°
2026-05-08 14:59 55.05931 17.56912 33236 ft 437 kts 159°
2026-05-08 14:59 54.97397 17.62690 33226 ft 445 kts 160°
2026-05-08 15:00 54.91602 17.66612 33232 ft 447 kts 160°
2026-05-08 15:00 54.85883 17.70462 33225 ft 439 kts 160°
2026-05-08 15:01 54.80181 17.74281 33226 ft 441 kts 159°
2026-05-08 15:01 54.74466 17.78111 33222 ft 440 kts 159°
2026-05-08 15:02 54.68752 17.81932 33230 ft 440 kts 160°
2026-05-08 15:02 54.63045 17.85722 33227 ft 439 kts 160°
2026-05-08 15:03 54.57385 17.89471 33230 ft 438 kts 160°
2026-05-08 15:03 54.51682 17.93235 33199 ft 439 kts 160°
2026-05-08 15:04 54.45976 17.97003 33205 ft 439 kts 159°
2026-05-08 15:04 54.40311 18.00726 33206 ft 439 kts 160°
2026-05-08 15:05 54.34600 18.04471 33184 ft 440 kts 160°
2026-05-08 15:05 54.28866 18.08225 33179 ft 442 kts 160°
2026-05-08 15:06 54.23110 18.11969 33178 ft 443 kts 160°
2026-05-08 15:06 54.17385 18.15686 33193 ft 443 kts 161°
2026-05-08 15:07 54.11629 18.19420 33171 ft 443 kts 161°
2026-05-08 15:07 54.05800 18.23192 33180 ft 452 kts 161°
2026-05-08 15:08 54.00930 18.26319 33184 ft 448 kts 160°
2026-05-08 15:08 53.94106 18.30695 33178 ft 448 kts 161°
2026-05-08 15:09 53.88322 18.34398 33173 ft 448 kts 161°
2026-05-08 15:09 53.82487 18.38126 33155 ft 449 kts 161°
2026-05-08 15:10 53.76624 18.41864 33143 ft 452 kts 161°
2026-05-08 15:10 53.70715 18.45601 33140 ft 454 kts 161°
2026-05-08 15:11 53.64822 18.49320 33137 ft 456 kts 161°
2026-05-08 15:11 53.58888 18.53063 33160 ft 455 kts 161°
2026-05-08 15:12 53.52957 18.56794 33140 ft 455 kts 162°
2026-05-08 15:12 53.47011 18.60523 33137 ft 457 kts 162°
2026-05-08 15:13 53.41046 18.64249 33136 ft 458 kts 162°
2026-05-08 15:13 53.35111 18.67946 33135 ft 458 kts 162°
2026-05-08 15:14 53.29128 18.71663 33138 ft 459 kts 162°
2026-05-08 15:14 53.23142 18.75366 33118 ft 459 kts 162°
2026-05-08 15:15 53.17182 18.79043 33126 ft 460 kts 162°
2026-05-08 15:15 53.11172 18.82737 33129 ft 461 kts 162°
2026-05-08 15:16 53.05158 18.86425 33133 ft 461 kts 162°
2026-05-08 15:16 52.99142 18.90115 33133 ft 461 kts 162°
2026-05-08 15:17 52.93121 18.93778 33123 ft 461 kts 163°
2026-05-08 15:17 52.87135 18.97409 33126 ft 461 kts 163°
2026-05-08 15:18 52.81109 19.01066 33131 ft 461 kts 162°
2026-05-08 15:18 52.75082 19.04723 33131 ft 461 kts 162°
2026-05-08 15:19 52.69052 19.08367 33113 ft 462 kts 163°
2026-05-08 15:19 52.63056 19.11972 33128 ft 462 kts 163°
2026-05-08 15:20 52.57011 19.15593 33141 ft 462 kts 163°
2026-05-08 15:20 52.50962 19.19204 33141 ft 463 kts 163°
2026-05-08 15:21 52.44907 19.22806 33141 ft 463 kts 163°
2026-05-08 15:21 52.38857 19.26395 33121 ft 462 kts 163°
2026-05-08 15:22 52.32849 19.29958 33127 ft 462 kts 163°
2026-05-08 15:22 52.26794 19.33528 33129 ft 463 kts 163°
2026-05-08 15:23 52.20739 19.37099 33128 ft 463 kts 163°
2026-05-08 15:23 52.14686 19.40659 33131 ft 463 kts 163°
2026-05-08 15:24 52.08670 19.44178 33120 ft 463 kts 163°
2026-05-08 15:24 52.02607 19.47722 33123 ft 463 kts 163°
2026-05-08 15:25 51.96540 19.51260 33123 ft 464 kts 163°
2026-05-08 15:25 51.90464 19.54773 33126 ft 464 kts 164°
2026-05-08 15:26 51.84426 19.58259 33128 ft 464 kts 164°
2026-05-08 15:26 51.78348 19.61766 33131 ft 464 kts 163°
2026-05-08 15:27 51.72268 19.65269 33135 ft 464 kts 164°
2026-05-08 15:27 51.66186 19.68764 33138 ft 464 kts 164°
2026-05-08 15:28 51.60107 19.72247 33132 ft 464 kts 164°
2026-05-08 15:28 51.54067 19.75686 33114 ft 464 kts 164°
2026-05-08 15:29 51.47984 19.79152 33121 ft 464 kts 164°
2026-05-08 15:29 51.41898 19.82608 33127 ft 464 kts 164°
2026-05-08 15:30 51.35810 19.86050 33133 ft 464 kts 164°
2026-05-08 15:30 51.29764 19.89463 33111 ft 464 kts 165°
2026-05-08 15:31 51.23674 19.92887 33120 ft 464 kts 165°
2026-05-08 15:31 51.17589 19.96302 33128 ft 464 kts 165°
2026-05-08 15:32 51.11495 19.99708 33129 ft 464 kts 165°
2026-05-08 15:32 51.05406 20.03098 33131 ft 464 kts 165°
2026-05-08 15:33 50.99359 20.06462 33111 ft 463 kts 166°
2026-05-08 15:33 50.93271 20.09841 33119 ft 464 kts 165°
2026-05-08 15:34 50.87180 20.13215 33126 ft 464 kts 166°
2026-05-08 15:34 50.81090 20.16570 33124 ft 464 kts 166°
2026-05-08 15:35 50.75035 20.19901 33094 ft 464 kts 166°
2026-05-08 15:35 50.68947 20.23256 33107 ft 463 kts 166°
2026-05-08 15:36 50.63882 20.26029 33122 ft 463 kts 166°
2026-05-08 15:36 50.56762 20.29913 33127 ft 463 kts 166°
2026-05-08 15:37 50.50672 20.33233 33127 ft 463 kts 166°
2026-05-08 15:37 50.44627 20.36541 33103 ft 463 kts 166°
2026-05-08 15:38 50.38544 20.39852 33112 ft 463 kts 166°
2026-05-08 15:38 50.32464 20.43147 33120 ft 462 kts 166°
2026-05-08 15:39 50.26383 20.46434 33125 ft 462 kts 166°
2026-05-08 15:39 50.20348 20.49701 33101 ft 462 kts 166°
2026-05-08 15:40 50.14281 20.52987 33120 ft 461 kts 167°
2026-05-08 15:40 50.08215 20.56243 33111 ft 461 kts 167°
2026-05-08 15:41 50.02153 20.59493 33114 ft 461 kts 167°
2026-05-08 15:41 49.96127 20.62717 33117 ft 461 kts 167°
2026-05-08 15:42 49.90066 20.65945 33106 ft 460 kts 167°
2026-05-08 15:42 49.84011 20.69157 33129 ft 460 kts 167°
2026-05-08 15:43 49.77959 20.72365 33123 ft 459 kts 167°
2026-05-08 15:43 49.71912 20.75566 33119 ft 459 kts 167°
2026-05-08 15:44 49.65910 20.78739 33093 ft 459 kts 167°
2026-05-08 15:44 49.59869 20.81915 33104 ft 458 kts 167°
2026-05-08 15:45 49.53833 20.85080 33108 ft 458 kts 167°
2026-05-08 15:45 49.47802 20.88243 33108 ft 458 kts 167°
2026-05-08 15:46 49.41768 20.91384 33095 ft 458 kts 168°
2026-05-08 15:46 49.35780 20.94504 33077 ft 458 kts 168°
2026-05-08 15:47 49.29755 20.97639 33084 ft 458 kts 168°
2026-05-08 15:47 49.23720 21.00758 33090 ft 458 kts 168°
2026-05-08 15:48 49.14706 21.05407 33089 ft 458 kts 168°
2026-05-08 15:49 49.08670 21.08517 33087 ft 458 kts 168°
2026-05-08 15:49 49.02633 21.11606 33087 ft 458 kts 168°
2026-05-08 15:50 48.96572 21.14552 33084 ft 454 kts 174°
2026-05-08 15:50 48.93490 21.15582 33301 ft 454 kts 174°
2026-05-08 15:50 48.90448 21.16599 33533 ft 454 kts 175°
2026-05-08 15:50 48.87369 21.17633 33844 ft 452 kts 175°
2026-05-08 15:51 48.84302 21.18661 34106 ft 451 kts 175°
2026-05-08 15:51 48.81240 21.19680 34331 ft 450 kts 175°
2026-05-08 15:51 48.78175 21.20691 34512 ft 450 kts 175°
2026-05-08 15:51 48.75114 21.21702 34738 ft 450 kts 174°
2026-05-08 15:52 48.72057 21.22713 34939 ft 450 kts 174°
2026-05-08 15:52 48.65936 21.24740 35058 ft 450 kts 174°
2026-05-08 15:53 48.59873 21.26750 35060 ft 448 kts 175°
2026-05-08 15:53 48.53781 21.28757 35060 ft 448 kts 175°
2026-05-08 15:54 48.47682 21.30756 35059 ft 448 kts 175°
2026-05-08 15:54 48.41583 21.32756 35056 ft 449 kts 175°
2026-05-08 15:55 48.35520 21.34741 35036 ft 449 kts 175°
2026-05-08 15:55 48.26362 21.37731 35047 ft 449 kts 175°
2026-05-08 15:56 48.20253 21.39707 35048 ft 449 kts 175°
2026-05-08 15:56 48.14148 21.41684 35035 ft 449 kts 175°
2026-05-08 15:57 48.08077 21.43651 35040 ft 449 kts 175°
2026-05-08 15:57 48.01969 21.45620 35041 ft 449 kts 175°
2026-05-08 15:58 47.95855 21.47581 35046 ft 449 kts 175°
2026-05-08 15:58 47.89786 21.49527 35031 ft 449 kts 174°
2026-05-08 15:59 47.83685 21.51488 35045 ft 448 kts 174°
2026-05-08 15:59 47.77587 21.53441 35049 ft 448 kts 174°
2026-05-08 16:00 47.71497 21.55374 35045 ft 447 kts 174°
2026-05-08 16:00 47.65424 21.57304 35050 ft 445 kts 174°
2026-05-08 16:01 47.59419 21.59214 35056 ft 443 kts 174°
2026-05-08 16:01 47.53397 21.61111 35055 ft 442 kts 174°
2026-05-08 16:02 47.47392 21.63004 35054 ft 441 kts 174°
2026-05-08 16:02 47.41395 21.64908 35047 ft 440 kts 174°
2026-05-08 16:03 47.35456 21.66775 35036 ft 439 kts 174°
2026-05-08 16:03 47.29479 21.68649 35038 ft 439 kts 174°
2026-05-08 16:04 47.23505 21.70522 35041 ft 439 kts 174°
2026-05-08 16:04 47.17530 21.72336 35025 ft 436 kts 177°
2026-05-08 16:05 47.11569 21.73034 35028 ft 432 kts 181°
2026-05-08 16:05 47.05564 21.73638 35035 ft 433 kts 181°
2026-05-08 16:06 46.99553 21.74261 35037 ft 433 kts 181°
2026-05-08 16:06 46.93547 21.74870 35030 ft 433 kts 181°
2026-05-08 16:07 46.87540 21.75479 35022 ft 433 kts 181°
2026-05-08 16:07 46.81578 21.76082 35033 ft 432 kts 181°
2026-05-08 16:08 46.75574 21.76694 35035 ft 432 kts 181°
2026-05-08 16:08 46.69576 21.77300 35036 ft 432 kts 181°
2026-05-08 16:09 46.64587 21.77795 35037 ft 432 kts 181°
2026-05-08 16:09 46.57576 21.78489 35035 ft 432 kts 181°
2026-05-08 16:10 46.51617 21.79096 35026 ft 432 kts 181°
2026-05-08 16:10 46.45618 21.79690 35022 ft 432 kts 181°
2026-05-08 16:11 46.39616 21.80282 35018 ft 432 kts 181°
2026-05-08 16:11 46.33611 21.80876 35014 ft 433 kts 181°
2026-05-08 16:12 46.27643 21.81469 35003 ft 433 kts 181°
2026-05-08 16:12 46.21623 21.82062 35003 ft 434 kts 180°
2026-05-08 16:13 46.15604 21.82660 35018 ft 434 kts 181°
2026-05-08 16:13 46.09585 21.83249 35004 ft 434 kts 181°
2026-05-08 16:14 46.03601 21.83839 34995 ft 434 kts 181°
2026-05-08 16:14 45.97579 21.84425 34998 ft 434 kts 181°
2026-05-08 16:15 45.91539 21.85016 35005 ft 435 kts 181°
2026-05-08 16:15 45.85504 21.85602 35006 ft 435 kts 180°
2026-05-08 16:16 45.79510 21.86183 35004 ft 435 kts 180°
2026-05-08 16:16 45.73471 21.86772 35008 ft 435 kts 180°
2026-05-08 16:17 45.68452 21.87255 35009 ft 435 kts 180°
2026-05-08 16:17 45.62416 21.87841 35006 ft 435 kts 180°
2026-05-08 16:18 45.55406 21.88520 35016 ft 434 kts 180°
2026-05-08 16:18 45.49378 21.89106 35018 ft 434 kts 180°
2026-05-08 16:19 45.44374 21.89743 35001 ft 437 kts 174°
2026-05-08 16:19 45.38379 21.91179 35002 ft 437 kts 174°
2026-05-08 16:20 45.31406 21.92843 35006 ft 437 kts 174°
2026-05-08 16:20 45.26380 21.94045 35005 ft 437 kts 174°
2026-05-08 16:21 45.20422 21.95470 35001 ft 438 kts 174°
2026-05-08 16:21 45.14412 21.96902 35005 ft 438 kts 174°
2026-05-08 16:22 45.08400 21.98325 35006 ft 438 kts 174°
2026-05-08 16:22 45.02385 21.99737 34995 ft 438 kts 174°
2026-05-08 16:23 44.96410 22.01151 34985 ft 439 kts 173°
2026-05-08 16:23 44.90384 22.02578 34985 ft 439 kts 173°
2026-05-08 16:24 44.84358 22.03996 34981 ft 439 kts 173°
2026-05-08 16:24 44.78321 22.05404 34983 ft 440 kts 173°
2026-05-08 16:25 44.72327 22.06800 34986 ft 440 kts 173°
2026-05-08 16:25 44.66292 22.08215 34983 ft 439 kts 173°
2026-05-08 16:26 44.60262 22.09621 34987 ft 439 kts 173°
2026-05-08 16:26 44.54231 22.11011 34991 ft 439 kts 173°
2026-05-08 16:27 44.48242 22.12403 34993 ft 439 kts 173°
2026-05-08 16:27 44.42212 22.13797 34992 ft 439 kts 173°
2026-05-08 16:28 44.36182 22.15194 34991 ft 439 kts 173°
2026-05-08 16:28 44.30142 22.16589 34994 ft 440 kts 173°
2026-05-08 16:29 44.24101 22.17986 34991 ft 441 kts 173°
2026-05-08 16:29 44.18089 22.19373 34999 ft 441 kts 173°
2026-05-08 16:30 44.12032 22.20753 34999 ft 441 kts 173°
2026-05-08 16:30 44.05972 22.22136 35005 ft 441 kts 173°
2026-05-08 16:31 43.99918 22.23519 35014 ft 441 kts 173°
2026-05-08 16:31 43.93899 22.24897 35016 ft 441 kts 172°
2026-05-08 16:32 43.87841 22.26277 35017 ft 441 kts 172°
2026-05-08 16:32 43.81784 22.27648 35022 ft 441 kts 172°
2026-05-08 16:33 43.75729 22.29013 35031 ft 441 kts 172°
2026-05-08 16:33 43.69709 22.30379 35032 ft 442 kts 172°
2026-05-08 16:34 43.63639 22.31744 35031 ft 442 kts 172°
2026-05-08 16:34 43.57568 22.33108 35035 ft 442 kts 172°
2026-05-08 16:35 43.51498 22.34471 35028 ft 443 kts 172°
2026-05-08 16:35 43.45406 22.35834 35023 ft 444 kts 172°
2026-05-08 16:36 43.39346 22.37193 35027 ft 445 kts 172°
2026-05-08 16:36 43.33232 22.38554 35030 ft 445 kts 173°
2026-05-08 16:37 43.27115 22.39917 35027 ft 446 kts 172°
2026-05-08 16:37 43.20979 22.41287 35032 ft 447 kts 173°
2026-05-08 16:38 43.14838 22.42644 35036 ft 447 kts 172°
2026-05-08 16:38 43.08737 22.43988 35041 ft 447 kts 172°
2026-05-08 16:39 43.02596 22.45346 35045 ft 447 kts 172°
2026-05-08 16:39 42.96448 22.46710 35048 ft 447 kts 172°
2026-05-08 16:40 42.90304 22.48058 35052 ft 448 kts 172°
2026-05-08 16:40 42.84180 22.49276 35045 ft 447 kts 179°
2026-05-08 16:41 42.77974 22.49390 35042 ft 446 kts 180°
2026-05-08 16:42 42.68657 22.49510 35062 ft 446 kts 180°
2026-05-08 16:42 42.62448 22.49609 35057 ft 446 kts 180°
2026-05-08 16:43 42.56280 22.49705 35059 ft 446 kts 180°
2026-05-08 16:43 42.50071 22.49783 35056 ft 446 kts 180°
2026-05-08 16:44 42.43862 22.49872 35057 ft 446 kts 180°
2026-05-08 16:44 42.37653 22.49966 35057 ft 446 kts 180°
2026-05-08 16:45 42.31443 22.50053 35060 ft 446 kts 180°
2026-05-08 16:45 42.25272 22.50133 35054 ft 447 kts 180°
2026-05-08 16:46 42.19056 22.50214 35058 ft 447 kts 180°
2026-05-08 16:46 42.12837 22.50299 35055 ft 447 kts 180°
2026-05-08 16:47 42.06661 22.50383 35062 ft 447 kts 180°
2026-05-08 16:47 42.00443 22.50474 35066 ft 447 kts 180°
2026-05-08 16:48 41.94220 22.50559 35049 ft 448 kts 180°
2026-05-08 16:48 41.87978 22.50640 35046 ft 449 kts 180°
2026-05-08 16:49 41.81718 22.50729 35051 ft 450 kts 180°
2026-05-08 16:49 41.75489 22.50816 35047 ft 451 kts 181°
2026-05-08 16:50 41.69213 22.50897 35052 ft 451 kts 181°
2026-05-08 16:50 41.62932 22.50976 35059 ft 451 kts 181°
2026-05-08 16:51 41.56649 22.51062 35064 ft 452 kts 181°
2026-05-08 16:51 41.50403 22.51146 35063 ft 452 kts 181°
2026-05-08 16:52 41.44112 22.51235 35074 ft 452 kts 181°
2026-05-08 16:52 41.37822 22.51325 35072 ft 452 kts 181°
2026-05-08 16:53 41.28391 22.51457 35073 ft 452 kts 181°
2026-05-08 16:53 41.22143 22.51537 35081 ft 452 kts 181°
2026-05-08 16:54 41.15867 22.51733 35076 ft 453 kts 175°
2026-05-08 16:54 41.09777 22.53934 35077 ft 458 kts 156°
2026-05-08 16:55 41.04137 22.57923 35069 ft 460 kts 154°
2026-05-08 16:55 40.98540 22.61907 35068 ft 460 kts 154°
2026-05-08 16:56 40.92895 22.65905 35000 ft 462 kts 154°
2026-05-08 16:56 40.90059 22.67916 34747 ft 463 kts 154°
2026-05-08 16:56 40.87221 22.69929 34370 ft 463 kts 154°
2026-05-08 16:57 40.84386 22.71935 33993 ft 463 kts 154°
2026-05-08 16:57 40.81545 22.73939 33560 ft 463 kts 153°
2026-05-08 16:57 40.78702 22.75942 33131 ft 463 kts 153°
2026-05-08 16:57 40.75858 22.77944 32702 ft 464 kts 153°
2026-05-08 16:58 40.73040 22.79927 32299 ft 465 kts 153°
2026-05-08 16:58 40.70185 22.81937 31884 ft 466 kts 153°
2026-05-08 16:58 40.67320 22.83952 31479 ft 468 kts 153°
2026-05-08 16:58 40.64439 22.85975 31075 ft 469 kts 153°
2026-05-08 16:59 40.61553 22.87998 30667 ft 470 kts 152°
2026-05-08 16:59 40.58662 22.90027 30296 ft 471 kts 152°
2026-05-08 16:59 40.55767 22.92056 29878 ft 472 kts 152°
2026-05-08 16:59 40.52862 22.94089 29430 ft 473 kts 152°
2026-05-08 17:00 40.49951 22.96121 28984 ft 474 kts 152°
2026-05-08 17:00 40.47073 22.98125 28555 ft 475 kts 153°
2026-05-08 17:00 40.44069 22.99911 28128 ft 475 kts 160°
2026-05-08 17:00 40.40975 23.01449 27708 ft 476 kts 160°
2026-05-08 17:01 40.37877 23.02989 27294 ft 477 kts 160°
2026-05-08 17:01 40.34775 23.04534 26889 ft 477 kts 160°
2026-05-08 17:01 40.31668 23.06083 26486 ft 478 kts 160°
2026-05-08 17:01 40.28555 23.07633 26087 ft 479 kts 160°
2026-05-08 17:02 40.25437 23.09183 25711 ft 479 kts 160°
2026-05-08 17:02 40.22365 23.10708 25310 ft 478 kts 161°
2026-05-08 17:02 40.19269 23.12241 24470 ft 476 kts 161°
2026-05-08 17:02 40.16145 23.13786 23178 ft 482 kts 161°
2026-05-08 17:03 40.13018 23.15334 22412 ft 478 kts 161°
2026-05-08 17:03 40.09930 23.16860 21745 ft 471 kts 162°
2026-05-08 17:03 40.06887 23.18365 21091 ft 465 kts 162°
2026-05-08 17:03 40.03881 23.19848 20462 ft 459 kts 162°
2026-05-08 17:04 40.00909 23.21312 19826 ft 454 kts 162°
2026-05-08 17:04 39.98010 23.22739 19228 ft 449 kts 162°
2026-05-08 17:04 39.95103 23.24171 18643 ft 444 kts 163°
2026-05-08 17:04 39.92229 23.25586 18022 ft 439 kts 163°
2026-05-08 17:05 39.89393 23.26977 17470 ft 432 kts 163°
2026-05-08 17:05 39.86602 23.28345 16945 ft 425 kts 163°
2026-05-08 17:05 39.83857 23.29689 16437 ft 418 kts 163°
2026-05-08 17:05 39.81155 23.31009 15951 ft 412 kts 164°
2026-05-08 17:06 39.78494 23.32311 15468 ft 405 kts 164°
2026-05-08 17:06 39.75871 23.33595 14994 ft 400 kts 165°
2026-05-08 17:06 39.73287 23.34858 14530 ft 394 kts 165°
2026-05-08 17:06 39.70768 23.36088 14057 ft 390 kts 166°
2026-05-08 17:07 39.68236 23.37324 13556 ft 387 kts 166°
2026-05-08 17:07 39.65731 23.38545 13041 ft 382 kts 166°
2026-05-08 17:07 39.63252 23.39752 12544 ft 379 kts 166°
2026-05-08 17:07 39.60798 23.40945 12031 ft 375 kts 166°
2026-05-08 17:08 39.58359 23.42126 11496 ft 373 kts 166°
2026-05-08 17:08 39.55944 23.43295 11157 ft 365 kts 166°
2026-05-08 17:08 39.53643 23.44419 11014 ft 351 kts 167°
2026-05-08 17:08 39.51397 23.45519 10892 ft 339 kts 167°
2026-05-08 17:09 39.49232 23.46578 10767 ft 326 kts 167°
2026-05-08 17:09 39.47144 23.47593 10649 ft 315 kts 168°
2026-05-08 17:09 39.45122 23.48570 10445 ft 307 kts 168°
2026-05-08 17:09 39.43137 23.49526 10180 ft 302 kts 168°
2026-05-08 17:10 39.41178 23.50466 9947 ft 299 kts 168°
2026-05-08 17:10 39.39220 23.51400 9819 ft 300 kts 168°
2026-05-08 17:10 39.37267 23.52332 9680 ft 299 kts 168°
2026-05-08 17:10 39.35318 23.53268 9406 ft 298 kts 167°
2026-05-08 17:11 39.33408 23.54188 9031 ft 296 kts 167°
2026-05-08 17:11 39.31486 23.55114 8650 ft 294 kts 167°
2026-05-08 17:11 39.29577 23.56038 8273 ft 292 kts 166°
2026-05-08 17:11 39.27674 23.56959 7897 ft 291 kts 166°
2026-05-08 17:12 39.25785 23.57869 7517 ft 289 kts 165°
2026-05-08 17:12 39.23902 23.58774 7145 ft 288 kts 165°
2026-05-08 17:12 39.22031 23.59677 6774 ft 286 kts 165°
2026-05-08 17:12 39.20186 23.60523 6399 ft 282 kts 171°
2026-05-08 17:13 39.18287 23.60812 6033 ft 271 kts 186°
2026-05-08 17:13 39.16453 23.60412 5673 ft 265 kts 201°
2026-05-08 17:13 39.14796 23.59453 5327 ft 259 kts 209°
2026-05-08 17:13 39.13209 23.58409 4974 ft 249 kts 208°
2026-05-08 17:14 39.11718 23.57434 4662 ft 232 kts 208°
2026-05-08 17:14 39.10338 23.56536 4391 ft 213 kts 208°
2026-05-08 17:14 39.09064 23.55710 4122 ft 198 kts 207°
2026-05-08 17:14 39.07866 23.54932 3862 ft 187 kts 207°
2026-05-08 17:15 39.06745 23.54204 3616 ft 180 kts 206°
2026-05-08 17:15 39.05631 23.53476 3386 ft 179 kts 206°
2026-05-08 17:15 39.04523 23.52752 3154 ft 178 kts 206°
2026-05-08 17:15 39.03412 23.52027 2916 ft 180 kts 206°
2026-05-08 17:16 39.02417 23.51056 2751 ft 184 kts 231°
2026-05-08 17:16 39.01964 23.49515 2607 ft 191 kts 263°
2026-05-08 17:16 39.02274 23.47859 2462 ft 197 kts 299°
2026-05-08 17:16 39.03290 23.46698 2304 ft 200 kts 335°
2026-05-08 17:17 39.04592 23.46504 2160 ft 177 kts 10°
2026-05-08 17:17 39.05730 23.46834 2018 ft 165 kts 13°
2026-05-08 17:17 39.06827 23.47153 1883 ft 159 kts 14°
2026-05-08 17:17 39.07896 23.47464 1761 ft 156 kts 14°
2026-05-08 17:18 39.08953 23.47776 1633 ft 155 kts 14°
2026-05-08 17:18 39.10004 23.48080 1508 ft 155 kts 11°
2026-05-08 17:18 39.11071 23.48226 1278 ft 153 kts
2026-05-08 17:18 39.12130 23.48291 1090 ft 152 kts
2026-05-08 17:19 39.13164 23.48484 861 ft 148 kts 13°
2026-05-08 17:19 39.14117 23.48868 669 ft 143 kts 17°
2026-05-08 17:19 39.15080 23.49221 469 ft 143 kts 14°
2026-05-08 17:19 39.16016 23.49629 261 ft 141 kts 17°
2026-05-08 17:20 39.16938 23.50022 67 ft 139 kts 17°
2026-05-08 17:20 39.17790 23.50401 38 ft 108 kts 19°
2026-05-08 17:20 39.18242 23.50603 54 ft 40 kts 19°
2026-05-08 17:20 39.18415 23.50679 57 ft 18 kts 18°
2026-05-08 17:21 39.18509 23.50695 55 ft 11 kts 21°
2026-05-08 17:21 39.18511 23.50726 53 ft 1 kts 153°
2026-05-08 17:21 39.18480 23.50711 55 ft 10 kts 200°
2026-05-08 17:21 39.18391 23.50670 54 ft 15 kts 200°
2026-05-08 17:22 39.18294 23.50625 54 ft 15 kts 199°
2026-05-08 17:22 39.18196 23.50582 54 ft 16 kts 199°
2026-05-08 17:22 39.18083 23.50532 49 ft 18 kts 199°
2026-05-08 17:22 39.17965 23.50472 44 ft 18 kts 224°
2026-05-08 17:23 39.17915 23.50355 42 ft 10 kts 241°
2026-05-08 17:23 39.17896 23.50291 37 ft 9 kts 288°
2026-05-08 17:23 39.17908 23.50243 38 ft 0 kts 289°